Time,TemperatureF,DewpointF,PressureIn,WindDirection,WindDirectionDegrees,WindSpeedMPH,WindSpeedGustMPH,Humidity,HourlyPrecipIn,Conditions,Clouds,dailyrainin,SoftwareType,DateUTC
2013-01-17 00:04:00,42.0,41.0,30.01,NNE,16,0.0,-999.0,97,-99.99,,,-99.99,,2013-01-17 05:04:00,
2013-01-17 00:12:00,42.0,41.0,30.01,NNE,16,0.0,-999.0,97,-99.99,,,-99.99,,2013-01-17 05:12:00,
2013-01-17 00:22:00,42.0,41.0,30.02,NNE,17,0.0,-999.0,97,-99.99,,,-99.99,,2013-01-17 05:22:00,
2013-01-17 00:33:00,42.0,41.0,30.04,NNE,17,0.0,-999.0,97,-99.99,,,-99.99,,2013-01-17 05:33:00,
2013-01-17 00:42:00,42.0,41.0,30.04,NNE,17,0.0,-999.0,97,-99.99,,,-99.99,,2013-01-17 05:42:00,
2013-01-17 00:53:00,42.0,41.0,30.06,NNE,17,0.0,-999.0,97,-99.99,,,-99.99,,2013-01-17 05:53:00,
2013-01-17 01:02:00,42.0,41.0,30.05,NNE,17,0.0,-999.0,97,-99.99,,,-99.99,,2013-01-17 06:02:00,
2013-01-17 01:12:00,42.0,41.0,30.04,NNE,17,0.0,-999.0,97,-99.99,,,-99.99,,2013-01-17 06:12:00,
2013-01-17 01:22:00,42.0,41.0,30.04,NNE,17,0.0,-999.0,97,-99.99,,,-99.99,,2013-01-17 06:22:00,
2013-01-17 01:32:00,42.0,41.0,30.03,NNE,22,0.0,-999.0,97,-99.99,,,-99.99,,2013-01-17 06:32:00,
2013-01-17 01:42:00,42.0,41.0,30.03,NNE,22,0.0,-999.0,97,-99.99,,,-99.99,,2013-01-17 06:42:00,
2013-01-17 01:53:00,42.0,41.0,30.03,NNE,24,0.0,-999.0,97,-99.99,,,-99.99,,2013-01-17 06:53:00,
2013-01-17 02:02:00,42.0,41.0,30.03,NNE,25,0.0,-999.0,97,-99.99,,,-99.99,,2013-01-17 07:02:00,
2013-01-17 02:12:00,42.0,41.0,30.03,NNE,25,0.0,-999.0,97,-99.99,,,-99.99,,2013-01-17 07:12:00,
2013-01-17 02:22:00,41.0,40.0,30.04,North,5,1.0,-999.0,97,-99.99,,,-99.99,,2013-01-17 07:22:00,
2013-01-17 02:33:00,41.0,40.0,30.03,North,11,1.0,-999.0,97,-99.99,,,-99.99,,2013-01-17 07:33:00,
2013-01-17 02:42:00,41.0,40.0,30.03,North,11,1.0,-999.0,97,-99.99,,,-99.99,,2013-01-17 07:42:00,
2013-01-17 02:53:00,41.0,40.0,30.02,NNE,15,0.0,-999.0,97,-99.99,,,-99.99,,2013-01-17 07:53:00,
2013-01-17 03:02:00,41.0,40.0,30.01,NE,45,2.0,-999.0,97,-99.99,,,-99.99,,2013-01-17 08:02:00,
2013-01-17 03:12:00,41.0,40.0,30.01,NE,45,2.0,-999.0,97,-99.99,,,-99.99,,2013-01-17 08:12:00,
2013-01-17 03:22:00,41.0,40.0,30.01,NE,38,0.0,-999.0,97,-99.99,,,-99.99,,2013-01-17 08:22:00,
2013-01-17 03:32:00,41.0,40.0,30.01,NE,36,0.0,-999.0,97,-99.99,,,-99.99,,2013-01-17 08:32:00,
2013-01-17 03:43:00,41.0,40.0,30.01,NE,36,0.0,-999.0,97,-99.99,,,-99.99,,2013-01-17 08:43:00,
2013-01-17 03:53:00,41.0,40.0,30.00,NE,36,1.0,-999.0,97,-99.99,,,-99.99,,2013-01-17 08:53:00,
2013-01-17 04:02:00,41.0,40.0,30.01,NNE,30,1.0,-999.0,97,-99.99,,,-99.99,,2013-01-17 09:02:00,
2013-01-17 04:12:00,41.0,40.0,30.01,NNE,30,1.0,-999.0,97,-99.99,,,-99.99,,2013-01-17 09:12:00,
2013-01-17 04:22:00,41.0,40.0,30.01,NE,38,1.0,-999.0,97,-99.99,,,-99.99,,2013-01-17 09:22:00,
2013-01-17 04:32:00,41.0,40.0,30.00,NNE,22,2.0,-999.0,97,-99.99,,,-99.99,,2013-01-17 09:32:00,
2013-01-17 04:42:00,41.0,40.0,30.00,NNE,22,2.0,-999.0,97,-99.99,,,-99.99,,2013-01-17 09:42:00,
2013-01-17 04:53:00,41.0,40.0,29.98,North,351,3.0,-999.0,97,-99.99,,,-99.99,,2013-01-17 09:53:00,
2013-01-17 05:02:00,41.0,40.0,29.98,NNW,338,3.0,-999.0,97,-99.99,,,-99.99,,2013-01-17 10:02:00,
2013-01-17 05:12:00,41.0,40.0,29.98,NNW,338,3.0,-999.0,97,-99.99,,,-99.99,,2013-01-17 10:12:00,
2013-01-17 05:22:00,41.0,40.0,29.98,NE,44,3.0,-999.0,97,-99.99,,,-99.99,,2013-01-17 10:22:00,
2013-01-17 05:32:00,41.0,40.0,29.99,NNE,17,3.0,-999.0,97,-99.99,,,-99.99,,2013-01-17 10:32:00,
2013-01-17 05:42:00,41.0,40.0,29.99,NNE,17,3.0,-999.0,97,-99.99,,,-99.99,,2013-01-17 10:42:00,
2013-01-17 05:53:00,40.0,39.0,29.98,NNE,26,3.0,-999.0,97,-99.99,,,-99.99,,2013-01-17 10:53:00,
2013-01-17 06:03:00,40.0,39.0,29.98,NNE,31,3.0,-999.0,97,-99.99,,,-99.99,,2013-01-17 11:03:00,
2013-01-17 06:12:00,40.0,39.0,29.98,NNE,31,3.0,-999.0,97,-99.99,,,-99.99,,2013-01-17 11:12:00,
2013-01-17 06:22:00,39.0,38.0,29.99,NNE,17,2.0,-999.0,97,-99.99,,,-99.99,,2013-01-17 11:22:00,
2013-01-17 06:33:00,39.0,38.0,29.98,NNE,24,2.0,-999.0,97,-99.99,,,-99.99,,2013-01-17 11:33:00,
2013-01-17 06:43:00,39.0,38.0,29.98,NNE,24,2.0,-999.0,97,-99.99,,,-99.99,,2013-01-17 11:43:00,
2013-01-17 06:53:00,39.0,38.0,29.98,NNE,30,2.0,-999.0,97,-99.99,,,-99.99,,2013-01-17 11:53:00,
2013-01-17 07:02:00,38.0,37.0,29.98,ENE,59,2.0,-999.0,97,-99.99,,,-99.99,,2013-01-17 12:02:00,
2013-01-17 07:12:00,38.0,37.0,29.98,ENE,59,2.0,-999.0,97,-99.99,,,-99.99,,2013-01-17 12:12:00,
2013-01-17 07:23:00,38.0,37.0,29.98,NNW,340,2.0,-999.0,97,-99.99,,,-99.99,,2013-01-17 12:23:00,
2013-01-17 07:33:00,38.0,37.0,29.98,NE,42,2.0,-999.0,97,-99.99,,,-99.99,,2013-01-17 12:33:00,
2013-01-17 07:43:00,38.0,37.0,29.98,NE,42,2.0,-999.0,97,-99.99,,,-99.99,,2013-01-17 12:43:00,
2013-01-17 07:53:00,38.0,37.0,29.97,NNE,15,3.0,-999.0,97,-99.99,,,-99.99,,2013-01-17 12:53:00,
2013-01-17 08:03:00,38.0,37.0,29.98,North,360,1.0,-999.0,97,-99.99,,,-99.99,,2013-01-17 13:03:00,
2013-01-17 08:12:00,38.0,37.0,29.98,North,360,1.0,-999.0,97,-99.99,,,-99.99,,2013-01-17 13:12:00,
2013-01-17 08:23:00,38.0,37.0,29.96,NNE,30,2.0,-999.0,97,-99.99,,,-99.99,,2013-01-17 13:23:00,
2013-01-17 08:33:00,38.0,37.0,29.98,NNE,15,4.0,-999.0,97,-99.99,,,-99.99,,2013-01-17 13:33:00,
2013-01-17 08:43:00,38.0,37.0,29.98,NNE,15,4.0,-999.0,97,-99.99,,,-99.99,,2013-01-17 13:43:00,
2013-01-17 08:53:00,38.0,37.0,29.96,North,11,2.0,-999.0,97,-99.99,,,-99.99,,2013-01-17 13:53:00,
2013-01-17 09:03:00,38.0,37.0,29.93,ENE,68,3.0,-999.0,97,-99.99,,,-99.99,,2013-01-17 14:03:00,
2013-01-17 09:12:00,38.0,37.0,29.93,ENE,68,3.0,-999.0,97,-99.99,,,-99.99,,2013-01-17 14:12:00,
2013-01-17 09:23:00,38.0,37.0,29.96,NNW,336,4.0,-999.0,97,-99.99,,,-99.99,,2013-01-17 14:23:00,
2013-01-17 09:33:00,38.0,37.0,29.98,NE,34,1.0,-999.0,97,-99.99,,,-99.99,,2013-01-17 14:33:00,
2013-01-17 09:43:00,38.0,37.0,29.98,NE,34,1.0,-999.0,97,-99.99,,,-99.99,,2013-01-17 14:43:00,
2013-01-17 09:53:00,38.0,37.0,29.96,NE,39,3.0,-999.0,97,-99.99,,,-99.99,,2013-01-17 14:53:00,
2013-01-17 10:03:00,38.0,37.0,29.96,NNE,14,3.0,-999.0,97,-99.99,,,-99.99,,2013-01-17 15:03:00,
2013-01-17 10:12:00,38.0,37.0,29.96,NNE,14,3.0,-999.0,97,-99.99,,,-99.99,,2013-01-17 15:12:00,
2013-01-17 10:23:00,38.0,37.0,29.96,North,9,4.0,-999.0,97,-99.99,,,-99.99,,2013-01-17 15:23:00,
2013-01-17 10:33:00,38.0,37.0,29.94,North,350,5.0,-999.0,97,-99.99,,,-99.99,,2013-01-17 15:33:00,
2013-01-17 10:43:00,38.0,37.0,29.94,North,350,5.0,-999.0,97,-99.99,,,-99.99,,2013-01-17 15:43:00,
2013-01-17 10:53:00,37.0,36.0,29.95,NNE,25,3.0,-999.0,97,-99.99,,,-99.99,,2013-01-17 15:53:00,
2013-01-17 11:03:00,37.0,36.0,29.91,NE,40,5.0,-999.0,97,-99.99,,,-99.99,,2013-01-17 16:03:00,
2013-01-17 11:12:00,37.0,36.0,29.91,NE,40,5.0,-999.0,97,-99.99,,,-99.99,,2013-01-17 16:12:00,
2013-01-17 11:23:00,37.0,36.0,29.93,NE,38,4.0,-999.0,97,-99.99,,,-99.99,,2013-01-17 16:23:00,
2013-01-17 11:33:00,37.0,36.0,29.91,NE,55,4.0,-999.0,97,-99.99,,,-99.99,,2013-01-17 16:33:00,
2013-01-17 11:43:00,37.0,36.0,29.91,NE,55,4.0,-999.0,97,-99.99,,,-99.99,,2013-01-17 16:43:00,
2013-01-17 11:53:00,37.0,36.0,29.92,NE,49,2.0,-999.0,97,-99.99,,,-99.99,,2013-01-17 16:53:00,
2013-01-17 12:03:00,38.0,37.0,29.90,NNE,19,4.0,-999.0,97,-99.99,,,-99.99,,2013-01-17 17:03:00,
2013-01-17 12:13:00,38.0,37.0,29.90,NNE,19,4.0,-999.0,97,-99.99,,,-99.99,,2013-01-17 17:13:00,
2013-01-17 12:23:00,38.0,37.0,29.89,North,360,4.0,-999.0,97,-99.99,,,-99.99,,2013-01-17 17:23:00,
2013-01-17 12:33:00,37.0,36.0,29.90,ENE,69,6.0,-999.0,97,-99.99,,,-99.99,,2013-01-17 17:33:00,
2013-01-17 12:43:00,37.0,36.0,29.90,ENE,69,6.0,-999.0,97,-99.99,,,-99.99,,2013-01-17 17:43:00,
2013-01-17 12:53:00,37.0,36.0,29.87,NNW,331,7.0,-999.0,97,-99.99,,,-99.99,,2013-01-17 17:53:00,
2013-01-17 13:04:00,39.0,38.0,29.85,East,82,9.0,-999.0,97,-99.99,,,-99.99,,2013-01-17 18:04:00,
2013-01-17 13:12:00,39.0,38.0,29.85,East,82,9.0,-999.0,97,-99.99,,,-99.99,,2013-01-17 18:12:00,
2013-01-17 13:23:00,38.0,37.0,29.85,NNE,26,7.0,-999.0,97,-99.99,,,-99.99,,2013-01-17 18:23:00,
2013-01-17 13:33:00,38.0,37.0,29.87,NNE,27,8.0,-999.0,97,-99.99,,,-99.99,,2013-01-17 18:33:00,
2013-01-17 13:43:00,38.0,37.0,29.87,NNE,27,8.0,-999.0,97,-99.99,,,-99.99,,2013-01-17 18:43:00,
2013-01-17 13:53:00,38.0,37.0,29.84,NNE,24,5.0,-999.0,97,-99.99,,,-99.99,,2013-01-17 18:53:00,
2013-01-17 14:03:00,39.0,38.0,29.83,NNE,19,7.0,-999.0,97,-99.99,,,-99.99,,2013-01-17 19:03:00,
2013-01-17 14:13:00,39.0,38.0,29.83,NNE,19,7.0,-999.0,97,-99.99,,,-99.99,,2013-01-17 19:13:00,
2013-01-17 14:23:00,39.0,38.0,29.83,NE,36,8.0,-999.0,97,-99.99,,,-99.99,,2013-01-17 19:23:00,
2013-01-17 14:33:00,38.0,37.0,29.78,NE,39,8.0,-999.0,97,-99.99,,,-99.99,,2013-01-17 19:33:00,
2013-01-17 14:43:00,38.0,37.0,29.78,NE,39,8.0,-999.0,97,-99.99,,,-99.99,,2013-01-17 19:43:00,
2013-01-17 14:53:00,38.0,37.0,29.83,North,360,7.0,-999.0,97,-99.99,,,-99.99,,2013-01-17 19:53:00,
2013-01-17 15:03:00,38.0,37.0,29.84,NNE,29,5.0,-999.0,96,-99.99,,,-99.99,,2013-01-17 20:03:00,
2013-01-17 15:12:00,38.0,37.0,29.84,NNE,29,5.0,-999.0,96,-99.99,,,-99.99,,2013-01-17 20:12:00,
2013-01-17 15:23:00,37.0,36.0,29.87,NNW,329,7.0,-999.0,96,-99.99,,,-99.99,,2013-01-17 20:23:00,
2013-01-17 15:33:00,37.0,36.0,29.87,NW,326,4.0,-999.0,96,-99.99,,,-99.99,,2013-01-17 20:33:00,
2013-01-17 15:43:00,37.0,36.0,29.87,NW,326,4.0,-999.0,96,-99.99,,,-99.99,,2013-01-17 20:43:00,
2013-01-17 15:54:00,37.0,36.0,29.88,NE,45,3.0,-999.0,96,-99.99,,,-99.99,,2013-01-17 20:54:00,
2013-01-17 16:03:00,36.0,35.0,29.89,NE,48,2.0,-999.0,96,-99.99,,,-99.99,,2013-01-17 21:03:00,
2013-01-17 16:13:00,36.0,35.0,29.89,NE,48,2.0,-999.0,96,-99.99,,,-99.99,,2013-01-17 21:13:00,
2013-01-17 16:23:00,36.0,35.0,29.90,WNW,292,4.0,-999.0,96,-99.99,,,-99.99,,2013-01-17 21:23:00,
2013-01-17 16:34:00,35.0,34.0,29.91,NNE,22,4.0,-999.0,96,-99.99,,,-99.99,,2013-01-17 21:34:00,
2013-01-17 16:43:00,35.0,34.0,29.91,NNE,22,4.0,-999.0,96,-99.99,,,-99.99,,2013-01-17 21:43:00,
2013-01-17 16:53:00,35.0,34.0,29.92,North,11,4.0,-999.0,96,-99.99,,,-99.99,,2013-01-17 21:53:00,
2013-01-17 17:03:00,35.0,34.0,29.94,ENE,59,4.0,-999.0,96,-99.99,,,-99.99,,2013-01-17 22:03:00,
2013-01-17 17:12:00,35.0,34.0,29.94,ENE,59,4.0,-999.0,96,-99.99,,,-99.99,,2013-01-17 22:12:00,
2013-01-17 17:23:00,35.0,34.0,29.95,North,10,6.0,-999.0,96,-99.99,,,-99.99,,2013-01-17 22:23:00,
2013-01-17 17:33:00,35.0,34.0,29.96,NNE,21,4.0,-999.0,96,-99.99,,,-99.99,,2013-01-17 22:33:00,
2013-01-17 17:43:00,35.0,34.0,29.96,NNE,21,4.0,-999.0,96,-99.99,,,-99.99,,2013-01-17 22:43:00,
2013-01-17 17:53:00,34.0,33.0,29.98,NNE,26,3.0,-999.0,96,-99.99,,,-99.99,,2013-01-17 22:53:00,
2013-01-17 18:03:00,34.0,33.0,30.01,NW,326,2.0,-999.0,96,-99.99,,,-99.99,,2013-01-17 23:03:00,
2013-01-17 18:12:00,34.0,33.0,30.01,NW,326,2.0,-999.0,96,-99.99,,,-99.99,,2013-01-17 23:12:00,
2013-01-17 18:23:00,33.0,32.0,30.03,NNE,13,2.0,-999.0,96,-99.99,,,-99.99,,2013-01-17 23:23:00,
2013-01-17 18:33:00,33.0,32.0,30.06,NNW,340,2.0,-999.0,96,-99.99,,,-99.99,,2013-01-17 23:33:00,
2013-01-17 18:43:00,33.0,32.0,30.06,NNW,340,2.0,-999.0,96,-99.99,,,-99.99,,2013-01-17 23:43:00,
2013-01-17 18:53:00,33.0,32.0,30.08,NNW,346,3.0,-999.0,96,-99.99,,,-99.99,,2013-01-17 23:53:00,
2013-01-17 19:03:00,33.0,32.0,30.09,North,5,2.0,-999.0,96,-99.99,,,-99.99,,2013-01-18 00:03:00,
2013-01-17 19:12:00,33.0,32.0,30.09,North,5,2.0,-999.0,96,-99.99,,,-99.99,,2013-01-18 00:12:00,
2013-01-17 19:23:00,34.0,33.0,30.12,NNW,348,1.0,-999.0,96,-99.99,,,-99.99,,2013-01-18 00:23:00,
2013-01-17 19:32:00,34.0,33.0,30.12,NNW,348,1.0,-999.0,96,-99.99,,,-99.99,,2013-01-18 00:32:00,
2013-01-17 19:43:00,34.0,33.0,30.14,NNW,344,1.0,-999.0,96,-99.99,,,-99.99,,2013-01-18 00:43:00,
2013-01-17 19:53:00,35.0,34.0,30.15,NNW,333,1.0,-999.0,96,-99.99,,,-99.99,,2013-01-18 00:53:00,
2013-01-17 20:03:00,35.0,34.0,30.18,NNW,341,1.0,-999.0,96,-99.99,,,-99.99,,2013-01-18 01:03:00,
2013-01-17 20:13:00,35.0,34.0,30.18,NNW,341,1.0,-999.0,96,-99.99,,,-99.99,,2013-01-18 01:13:00,
2013-01-17 20:23:00,35.0,34.0,30.19,NNW,340,0.0,-999.0,96,-99.99,,,-99.99,,2013-01-18 01:23:00,
2013-01-17 20:33:00,35.0,34.0,30.20,NNW,346,0.0,-999.0,96,-99.99,,,-99.99,,2013-01-18 01:33:00,
2013-01-17 20:43:00,35.0,34.0,30.20,NNW,346,0.0,-999.0,96,-99.99,,,-99.99,,2013-01-18 01:43:00,
2013-01-17 20:53:00,35.0,34.0,30.21,NNW,346,0.0,-999.0,96,-99.99,,,-99.99,,2013-01-18 01:53:00,
2013-01-17 21:03:00,34.0,33.0,30.22,North,5,0.0,-999.0,96,-99.99,,,-99.99,,2013-01-18 02:03:00,
2013-01-17 21:12:00,34.0,33.0,30.22,North,5,0.0,-999.0,96,-99.99,,,-99.99,,2013-01-18 02:12:00,
2013-01-17 21:23:00,34.0,33.0,30.23,North,5,0.0,-999.0,96,-99.99,,,-99.99,,2013-01-18 02:23:00,
2013-01-17 21:33:00,34.0,33.0,30.23,North,5,0.0,-999.0,96,-99.99,,,-99.99,,2013-01-18 02:33:00,
2013-01-17 21:43:00,34.0,33.0,30.23,North,5,0.0,-999.0,96,-99.99,,,-99.99,,2013-01-18 02:43:00,
2013-01-17 21:53:00,33.0,32.0,30.24,North,5,0.0,-999.0,96,-99.99,,,-99.99,,2013-01-18 02:53:00,
2013-01-17 22:02:00,33.0,32.0,30.25,North,5,0.0,-999.0,96,-99.99,,,-99.99,,2013-01-18 03:02:00,
2013-01-17 22:12:00,33.0,32.0,30.25,North,5,0.0,-999.0,96,-99.99,,,-99.99,,2013-01-18 03:12:00,
2013-01-17 22:23:00,32.0,31.0,30.25,North,5,0.0,-999.0,96,-99.99,,,-99.99,,2013-01-18 03:23:00,
2013-01-17 22:33:00,32.0,31.0,30.27,North,5,0.0,-999.0,96,-99.99,,,-99.99,,2013-01-18 03:33:00,
2013-01-17 22:42:00,32.0,31.0,30.27,North,5,0.0,-999.0,96,-99.99,,,-99.99,,2013-01-18 03:42:00,
2013-01-17 22:53:00,31.0,30.0,30.27,North,5,0.0,-999.0,96,-99.99,,,-99.99,,2013-01-18 03:53:00,
2013-01-17 23:02:00,31.0,30.0,30.28,North,5,0.0,-999.0,96,-99.99,,,-99.99,,2013-01-18 04:02:00,
2013-01-17 23:12:00,31.0,30.0,30.28,North,5,0.0,-999.0,96,-99.99,,,-99.99,,2013-01-18 04:12:00,
2013-01-17 23:22:00,31.0,30.0,30.29,North,5,0.0,-999.0,96,-99.99,,,-99.99,,2013-01-18 04:22:00,
2013-01-17 23:33:00,31.0,30.0,30.30,North,5,0.0,-999.0,96,-99.99,,,-99.99,,2013-01-18 04:33:00,
2013-01-17 23:42:00,31.0,30.0,30.30,North,5,0.0,-999.0,96,-99.99,,,-99.99,,2013-01-18 04:42:00,
2013-01-17 23:53:00,30.0,29.0,30.31,North,5,0.0,-999.0,96,-99.99,,,-99.99,,2013-01-18 04:53:00,